Regional Weather Roundup
Issued by NWS

Home | Current Version | Previous Version | Graphics & Text | Print | Product List | Glossary On
Versions: 1 2 3 4 5 6 7 8 9 10 11 12 13 14 15 16 17 18 19 20 21 22 23 24 25 26 27 28 29 30 31 32 33 34 35 36 37 38 39 40 41 42 43 44 45 46 47 48 49 50
987
ASUS44 KJAN 302210
RWRMS

MISSISSIPPI HOURLY WEATHER ROUNDUP
NATIONAL WEATHER SERVICE JACKSON MS
500 PM CDT MON MAR 30 2015

NOTE: "FAIR: INDICATES FEW OR NO CLOUDS BELOW 12,000 FEET WITH NO
SIGNIFICANT WEATHER AND/OR OBSTRUCTIONS TO VISIBILITY.

MSZ001>002-007>008-010>013-018>021-025>028-034>036-302300-
NORTHWEST MISSISSIPPI

CITY           SKY/WX    TMP DP  RH WIND       PRES   REMARKS
CLARKSDALE     FAIR      72  50  46 CALM      30.14F
CLEVELAND      FAIR      74  50  43 CALM      30.12F
GREENWOOD      SUNNY     77  49  37 NW8       30.10F
GREENVILLE     NOT AVBL
OLIVE BRANCH   SUNNY     72  39  30 CALM      30.12F
OXFORD         FAIR      72  39  30 CALM      30.13F
TUNICA         CLEAR     72  45  37 CALM      30.13F
$$

MSZ003>006-009-014>017-022>024-029>033-037>039-302300-
NORTHEAST MISSISSIPPI

CITY           SKY/WX    TMP DP  RH WIND       PRES   REMARKS
COLUMBUS AFB   SUNNY     75  44  32 N8        30.10F
CORINTH        FAIR      70  41  35 VRB6      30.12F
GOLDN TRIANGLE MOSUNNY   75  48  38 SW5       30.11F
STARKVILLE     FAIR      75  48  38 CALM      30.10F
TUPELO         SUNNY     73  42  32 MISG      30.11F
$$

MSZ040-058-302300-
CENTRAL MISSISSIPPI

CITY           SKY/WX    TMP DP  RH WIND       PRES   REMARKS
JACKSON INTL   PTSUNNY   77  58  51 W5        30.10F
JACKSON HAWKNS MOSUNNY   79  58  48 W8        30.11F
MERIDIAN KEY   MOSUNNY   75  58  55 W6        30.11F
MERIDIAN NAS   MOSUNNY   74  58  57 W5        30.10F
RAYMOND        FAIR      79  73  83 W8        30.10F
VICKSBURG      PTSUNNY   77  60  55 CALM      30.10F
$$

MSZ059>079-302300-
SOUTH MISSISSIPPI

CITY           SKY/WX    TMP DP  RH WIND       PRES   REMARKS
BROOKHAVEN     FAIR      81  55  41 SW3       30.12F
HATTIESBURG    MOSUNNY   80  53  39 NW8       30.11F
MCCOMB         PTSUNNY   80  55  42 W7        30.11F
NATCHEZ          N/A     81  55  41 SW13      30.11F
PINE BELT      MOSUNNY   81  52  36 W10       30.12F
$$

MSZ080>082-302300-
COASTAL MISSISSIPPI

CITY           SKY/WX    TMP DP  RH WIND       PRES   REMARKS
BAY ST LOUIS   MOSUNNY   81  50  34 MISG      30.12F
BILOXI         SUNNY     75  67  75 SW14      30.12F
PASCAGOULA     MOSUNNY   77  64  64 SW9       30.13F
GULFPORT         N/A     77  64  64 S10G17    30.12F
$$



USA.gov is the U.S. government's official web portal to all federal, state and local government web resources and services.